EDT,Max TemperatureF,Mean TemperatureF,Min TemperatureF,Max Dew PointF,MeanDew PointF,Min DewpointF,Max Humidity, Mean Humidity, Min Humidity, Max Sea Level PressureIn, Mean Sea Level PressureIn, Min Sea Level PressureIn, Max VisibilityMiles, Mean VisibilityMiles, Min VisibilityMiles, Max Wind SpeedMPH, Mean Wind SpeedMPH, Max Gust SpeedMPH,PrecipitationIn, CloudCover, Events, WindDirDegrees
2013-3-1,55,46,37,36,31,28,79,57,35,29.93,29.90,29.84,10,10,10,14,4,22,0.00,1,,312
2013-3-2,50,43,35,36,32,28,100,71,42,29.92,29.88,29.83,10,10,10,13,3,16,0.00,6,,303
2013-3-3,50,42,34,32,24,21,82,58,34,29.98,29.92,29.87,10,10,10,16,6,24,0.00,2,,312
2013-3-4,53,42,30,29,20,14,75,49,22,30.15,30.09,30.00,10,10,10,18,6,25,0.00,0,,313
2013-3-5,60,47,34,53,43,28,92,77,62,30.13,29.96,29.66,10,10,4,25,11,33,0.09,4,Rain,209
2013-3-6,60,51,42,52,30,23,86,58,29,30.03,29.77,29.61,10,10,10,26,13,39,0.00,2,,285
2013-3-7,58,47,35,34,29,27,75,54,33,30.21,30.14,30.06,10,10,10,16,6,24,0.00,0,,321
2013-3-8,58,46,34,33,27,23,79,52,25,30.27,30.21,30.15,10,10,10,16,7,24,0.00,0,,334
2013-3-9,64,51,37,40,33,27,92,62,32,30.31,30.27,30.24,10,10,9,15,6,20,0.00,0,,3
2013-3-10,59,46,33,41,36,31,100,68,36,30.32,30.27,30.23,10,8,1,13,4,23,0.00,0,,104
2013-3-11,67,55,42,55,50,38,93,78,63,30.23,30.10,29.95,10,10,10,14,7,21,0.00,5,,130
2013-3-12,65,59,52,59,57,48,97,86,75,29.95,29.86,29.79,10,6,1,18,9,25,0.41,5,Rain,200
2013-3-13,63,54,44,47,32,22,77,49,20,30.10,30.02,29.93,10,10,10,20,7,30,0.00,0,,325
2013-3-14,54,45,35,31,22,17,65,45,24,30.27,30.19,30.10,10,10,10,18,6,24,0.00,0,,330
2013-3-15,56,43,30,46,33,21,92,61,30,30.23,30.13,30.01,10,10,10,18,8,24,0.00,0,,203
2013-3-16,80,67,54,51,46,41,80,54,28,29.99,29.89,29.81,10,10,10,26,15,33,0.00,0,,232
2013-3-17,77,64,51,55,50,45,93,67,41,30.07,29.97,29.92,10,10,7,22,9,30,0.00,0,,220
2013-3-18,61,55,49,54,49,44,93,79,64,30.12,30.02,29.87,10,9,6,21,8,21,0.37,6,,81
2013-3-19,71,60,49,57,51,35,100,68,35,30.00,29.88,29.78,10,6,1,20,6,28,0.23,5,Rain-Thunderstorm,311
2013-3-20,59,48,36,37,27,14,92,55,17,30.11,29.98,29.83,10,10,10,17,5,26,0.00,2,,59
2013-3-21,55,45,35,37,22,11,92,55,18,29.96,29.81,29.74,10,10,2,18,7,29,0.00,0,,312
2013-3-22,49,39,28,35,22,13,69,47,24,30.12,30.05,29.98,10,10,10,15,5,17,0.00,1,,280
2013-3-23,52,45,38,45,40,30,93,70,46,30.08,30.01,29.92,10,6,2,10,2,21,0.37,5,Rain,68
2013-3-24,60,52,43,58,48,41,93,87,80,29.91,29.64,29.43,10,5,1,26,10,43,1.61,8,Rain,28
2013-3-25,55,49,42,43,32,23,96,64,32,29.90,29.69,29.57,10,10,10,24,12,37,0.00,4,,266
2013-3-26,51,43,34,29,25,23,64,50,35,30.14,30.00,29.91,10,10,10,16,7,23,0.00,2,,289
2013-3-27,57,46,35,32,27,23,76,52,27,30.24,30.19,30.15,10,10,10,18,6,29,0.00,0,,307
2013-3-28,58,45,32,32,27,22,82,53,24,30.28,30.24,30.17,10,10,10,16,5,24,0.00,0,,321
2013-3-29,56,44,31,44,33,26,82,59,35,30.35,30.29,30.23,10,10,10,17,8,76,0.00,2,,203
2013-3-30,62,55,47,49,43,37,82,67,51,30.25,30.19,30.13,10,10,10,14,6,18,T,5,,97
2013-3-31,65,58,51,57,54,50,93,80,67,30.12,29.98,29.89,10,10,4,28,13,37,0.10,5,Rain-Thunderstorm,201